Вернуться в каталог

STARLINK-5584

АктивенСвязьVLEO
NORAD 55769·PAYLOAD·🇺🇸 United States

Запущен Mar 3, 2023 с Vandenberg Space Force Base

Loading…

Ближайшие Пролёты (ближайшие 24 часа)

TLE

СвежийSource: CelesTrak SupGP

Эпоха: Sep 15, 2026, 02:06 UTC

1 55769C 23028AE  26258.08798611  .00000913  00000+0  76489-4 0  2588
2 55769  69.9997 106.9751 0002780 275.7900  15.3371 14.98335864    11

Отслеживайте STARLINK-5584 в реальном времени с AllMySat

Download on the App Store